Location: Iesi
(43.5167°N, 13.2333°E)
Time: 01:21:17
(UTC+00:00)

Intercosmos 25 - Pass Details

Date: 08 August 2020
Orbit: 439 x 2877 km, 82.6° (Epoch: 19 September)

Event Time Altitude Azimuth Distance (km) Brightness Sun altitude
Rises 19:51:50 0° 349° (N) 3,314 8.1 -15.0°
Reaches altitude 10° 19:54:36 10° 347° (NNW) 2,104 7.1 -15.4°
Maximum altitude 19:58:53 65° 266° (W) 575 3.5 -16.0°
Enters shadow 20:01:04 20° 188° (S) 1,142 4.6 -16.3°
